Back to catalog

FENGYUN 1C DEB

AliveSSO
NORAD 32457·DEBRIS·🇨🇳 China

Launched May 10, 1999 from Taiyuan Satellite Launch Center

Loading…

Next Passes (next 24 hours)

TLE

FreshSource: Space-Track

Epoch: Sep 11, 2026, 08:05 UTC

1 32457U 99025DBV 26254.33746209  .00000347  00000-0  51853-3 0  9998
2 32457 100.0980 294.2760 0416960  41.5065 321.6944 13.29709394575731

Track FENGYUN 1C DEB in real time with AllMySat

Download on the App Store